KX4DU Weather Reports


time (UTC)temp
C
wind
direction
speed
KPH
gust
KPH
rain 1hr
cm
rain 24hr
cm
rain mn
cm
humidity
%
barometer
mb
20260510175518 26 175 3.2 11.3 0.00 0.13 0.03 81 1016.8
20260510175019 26 293 4.8 11.3 0.00 0.13 0.03 80 1016.8
20260510174533 25 297 1.6 12.9 0.00 0.13 0.03 82 1016.8
20260510174019 25 276 6.4 14.5 0.00 0.13 0.03 81 1016.8
20260510173518 25 281 8.0 14.5 0.00 0.13 0.03 81 1017.0
20260510173032 26 275 6.4 14.5 0.00 0.13 0.03 79 1017.0
20260510172518 26 51 3.2 12.9 0.00 0.13 0.03 81 1016.9
20260510172020 26 0 4.8 12.9 0.00 0.13 0.03 80 1017.1
20260510171539 26 15 4.8 12.9 0.00 0.13 0.03 80 1017.1
20260510171018 26 279 4.8 11.3 0.00 0.13 0.03 80 1017.1
20260510170522 26 215 3.2 11.3 0.00 0.13 0.03 82 1017.0
20260510170034 26 248 4.8 12.9 0.00 0.13 0.03 81 1017.0
20260510165519 25 0 1.6 12.9 0.00 0.66 0.03 82 1017.0
20260510165014 25 271 4.8 14.5 0.00 0.66 0.03 82 1017.1
20260510164536 25 304 3.2 14.5 0.00 0.66 0.03 82 1017.1
20260510164015 25 292 3.2 12.9 0.00 0.66 0.03 84 1017.1
20260510163516 25 246 3.2 12.9 0.00 0.66 0.03 85 1017.2
20260510163035 24 275 3.2 12.9 0.00 0.66 0.03 86 1017.1
20260510162515 24 261 3.2 11.3 0.00 0.66 0.03 85 1017.1
20260510162015 25 259 3.2 11.3 0.00 0.66 0.03 83 1017.1
20260510161532 25 284 1.6 11.3 0.00 0.66 0.03 83 1017.0
20260510161016 25 261 1.6 4.8 0.00 0.66 0.03 79 1017.1
20260510160519 25 107 0.0 3.2 0.00 0.66 0.03 81 1017.0
20260510160034 25 5 0.0 3.2 0.00 0.66 0.03 81 1017.0
20260510155515 25 0 0.0 6.4 0.00 0.99 0.03 82 1017.0
20260510155015 24 0 0.0 8.0 0.00 0.99 0.03 82 1016.9
20260510154551 24 333 3.2 8.0 0.00 0.99 0.03 84 1016.9
20260510154021 24 32 0.0 6.4 0.00 0.99 0.03 85 1016.9
20260510153518 23 0 0.0 6.4 0.00 0.99 0.03 86 1016.9
20260510153036 23 23 1.6 6.4 0.00 0.99 0.03 87 1017.0
20260510152518 23 44 1.6 8.0 0.00 0.99 0.03 88 1016.9
20260510152015 23 83 1.6 8.0 0.00 0.99 0.03 89 1016.9
20260510151532 23 96 3.2 8.0 0.00 0.99 0.03 91 1017.0
20260510151016 23 78 1.6 8.0 0.00 0.99 0.03 95 1017.0
20260510150515 22 38 3.2 8.0 0.00 0.99 0.03 97 1017.0
20260510150035 22 22 3.2 9.7 0.00 0.99 0.03 97 1017.0
20260510145516 21 0 1.6 9.7 0.00 1.24 0.03 98 1017.1
20260510145015 21 96 3.2 6.4 0.00 1.24 0.03 99 1017.0
20260510144541 21 63 3.2 6.4 0.00 1.24 0.03 99 1017.1
20260510144016 21 37 1.6 6.4 0.00 1.24 0.03 100 1017.2
20260510143515 21 48 1.6 6.4 0.00 1.24 0.03 100 1017.2
20260510143040 21 33 1.6 6.4 0.00 1.24 0.03 100 1017.2
20260510142515 21 56 0.0 6.4 0.00 1.24 0.03 100 1017.2
20260510142015 21 53 3.2 6.4 0.00 1.24 0.03 100 1017.3
20260510141538 21 48 1.6 6.4 0.00 1.24 0.03 100 1017.2
20260510141019 20 33 0.0 4.8 0.00 1.24 0.03 100 1017.3
20260510140517 20 0 1.6 4.8 0.00 1.24 0.03 100 1017.2
20260510140038 20 69 0.0 4.8 0.00 1.24 0.03 100 1017.1
20260510135515 20 0 0.0 9.7 0.00 1.32 0.03 99 1017.0
20260510135018 20 86 0.0 9.7 0.00 1.32 0.03 100 1017.0
20260510134534 20 77 3.2 8.0 0.00 1.32 0.03 100 1016.9
20260510134015 20 77 1.6 3.2 0.00 1.32 0.03 100 1017.0
20260510133516 20 0 0.0 3.2 0.00 1.32 0.03 100 1017.0
20260510133032 19 76 0.0 3.2 0.00 1.32 0.03 100 1017.0
20260510132515 19 0 0.0 3.2 0.00 1.32 0.03 100 1016.9
20260510132015 19 0 0.0 3.2 0.00 1.32 0.03 100 1017.0
20260510131536 19 0 0.0 4.8 0.00 1.32 0.03 100 1017.0
20260510131017 19 0 0.0 6.4 0.00 1.32 0.03 99 1017.0
20260510130516 18 345 1.6 6.4 0.00 1.32 0.03 99 1016.8
20260510130031 19 32 1.6 6.4 0.00 1.32 0.03 99 1016.7
20260510125518 19 32 1.6 6.4 0.00 1.37 0.03 100 1016.7
20260510125015 19 30 1.6 6.4 0.00 1.37 0.03 100 1016.6
20260510124534 18 0 0.0 4.8 0.00 1.37 0.03 99 1016.6
20260510124016 18 0 0.0 4.8 0.00 1.37 0.03 99 1016.7
20260510123518 18 0 0.0 4.8 0.00 1.37 0.03 100 1016.6
20260510123036 18 0 0.0 4.8 0.00 1.37 0.03 100 1016.5
20260510122517 18 60 1.6 4.8 0.00 1.37 0.03 99 1016.3
20260510122018 18 0 0.0 0.0 0.00 1.37 0.03 99 1016.2
20260510121532 18 0 0.0 0.0 0.00 1.37 0.03 100 1016.0
20260510121019 18 0 0.0 0.0 0.00 1.37 0.03 100 1016.0
20260510120517 18 0 0.0 0.0 0.00 1.37 0.03 99 1015.8
20260510120034 18 0 0.0 0.0 0.00 1.37 0.03 99 1015.7
20260510115517 18 0 0.0 0.0 0.00 1.42 0.03 99 1015.6
20260510115019 18 0 0.0 0.0 0.00 1.42 0.03 99 1015.6
20260510114538 18 0 0.0 0.0 0.00 1.42 0.03 99 1015.4
20260510114017 18 0 0.0 0.0 0.00 1.42 0.03 99 1015.4
20260510113519 18 0 0.0 0.0 0.00 1.42 0.03 99 1015.3
20260510113035 18 0 0.0 0.0 0.00 1.42 0.03 99 1015.3
20260510112519 18 0 0.0 0.0 0.00 1.42 0.03 99 1015.3
20260510112018 18 0 0.0 0.0 0.00 1.42 0.03 99 1015.2
20260510111532 18 0 0.0 0.0 0.00 1.42 0.03 99 1015.0
20260510111015 18 0 0.0 0.0 0.00 1.42 0.03 99 1015.0
20260510110520 18 0 0.0 0.0 0.00 1.42 0.03 99 1015.0
20260510110038 18 0 0.0 0.0 0.00 1.42 0.03 99 1014.8
20260510105518 18 0 0.0 0.0 0.00 1.42 0.03 99 1014.7
20260510105018 18 0 0.0 0.0 0.00 1.42 0.03 99 1014.7
20260510104532 18 0 0.0 0.0 0.00 1.42 0.03 99 1014.6
20260510104017 18 0 0.0 0.0 0.00 1.42 0.03 99 1014.6
20260510103517 18 0 0.0 0.0 0.00 1.42 0.03 99 1014.6
20260510103034 18 0 0.0 0.0 0.00 1.42 0.03 99 1014.4
20260510102518 18 0 0.0 0.0 0.00 1.42 0.03 99 1014.4
20260510102016 18 0 0.0 0.0 0.00 1.42 0.03 99 1014.4
20260510101537 18 0 0.0 0.0 0.00 1.42 0.03 99 1014.4
20260510101019 18 0 0.0 0.0 0.00 1.42 0.03 99 1014.4
20260510100522 18 0 0.0 0.0 0.00 1.42 0.03 99 1014.3
20260510100034 18 0 0.0 0.0 0.00 1.42 0.03 99 1014.3
20260510095518 18 0 0.0 0.0 0.00 1.42 0.03 99 1014.1
20260510095021 18 0 0.0 0.0 0.00 1.42 0.03 99 1014.1
20260510094545 18 0 0.0 0.0 0.00 1.42 0.03 99 1014.0
20260510094017 18 0 0.0 0.0 0.00 1.42 0.03 99 1014.0
20260510093514 18 0 0.0 0.0 0.00 1.42 0.03 99 1013.8
20260510093050 18 0 0.0 0.0 0.00 1.42 0.03 99 1013.8
20260510092517 18 0 0.0 0.0 0.00 1.42 0.03 99 1013.7
20260510092017 18 0 0.0 0.0 0.00 1.42 0.03 99 1013.7
20260510091542 18 0 0.0 0.0 0.00 1.42 0.03 99 1013.6
20260510091017 18 0 0.0 0.0 0.00 1.42 0.03 99 1013.6
20260510090515 18 0 0.0 0.0 0.00 1.42 0.03 99 1013.6
20260510090037 18 0 0.0 0.0 0.00 1.42 0.03 99 1013.5
20260510085516 18 0 0.0 0.0 0.00 1.42 0.03 99 1013.5
20260510085016 18 0 0.0 0.0 0.00 1.42 0.03 99 1013.4
20260510084536 18 0 0.0 0.0 0.00 1.42 0.03 99 1013.4
20260510084015 18 0 0.0 0.0 0.03 1.42 0.03 99 1013.5
20260510083519 18 0 0.0 0.0 0.03 1.42 0.03 99 1013.4
20260510083034 18 0 0.0 0.0 0.03 1.42 0.03 99 1013.3
20260510082514 18 0 0.0 0.0 0.03 1.42 0.03 99 1013.3
20260510082017 18 0 0.0 0.0 0.03 1.42 0.03 99 1013.2
20260510081532 18 0 0.0 0.0 0.03 1.42 0.03 99 1013.2
20260510081014 18 0 0.0 0.0 0.03 1.42 0.03 99 1013.1
20260510080517 18 0 0.0 0.0 0.03 1.42 0.03 99 1013.1
20260510080032 18 0 0.0 0.0 0.03 1.42 0.03 99 1013.0
20260510075517 18 0 0.0 4.8 0.03 1.45 0.03 99 1012.9
20260510075014 18 0 0.0 4.8 0.03 1.45 0.03 99 1012.9
20260510074536 18 20 0.0 3.2 0.03 1.45 0.03 99 1012.9
20260510074015 18 0 0.0 0.0 0.00 1.42 0.00 99 1013.0
20260510073515 18 0 0.0 0.0 0.00 1.42 0.00 99 1013.0
20260510073042 18 0 0.0 0.0 0.00 1.42 0.00 99 1013.0
20260510072515 18 0 0.0 3.2 0.00 1.42 0.00 99 1012.9
20260510072015 18 0 0.0 3.2 0.00 1.42 0.00 99 1012.8
20260510071547 19 0 0.0 1.6 0.00 1.42 0.00 99 1012.7
20260510071014 18 0 0.0 1.6 0.00 1.42 0.00 99 1012.7
20260510070514 19 0 0.0 0.0 0.00 1.42 0.00 99 1012.7
20260510070035 18 0 0.0 0.0 0.00 1.42 0.00 99 1012.8
20260510065520 19 0 0.0 1.6 0.00 1.42 0.00 99 1012.8
20260510065017 19 0 0.0 1.6 0.00 1.42 0.00 99 1012.7
20260510064534 19 0 0.0 1.6 0.00 1.42 0.00 99 1012.6
20260510064018 18 0 0.0 0.0 0.00 1.42 0.00 99 1012.7
20260510063518 18 0 0.0 3.2 0.00 1.42 0.00 99 1012.7
20260510063032 18 0 0.0 6.4 0.00 1.42 0.00 99 1012.8
20260510062515 18 101 1.6 6.4 0.00 1.42 0.00 99 1012.7
20260510062014 18 131 0.0 4.8 0.00 1.42 0.00 98 1012.7
20260510061540 18 138 0.0 4.8 0.00 1.42 0.00 98 1012.8
20260510061018 19 94 3.2 4.8 0.00 1.42 0.00 98 1013.0
20260510060518 19 0 0.0 0.0 0.00 1.42 0.00 98 1013.0
20260510060036 19 0 0.0 1.6 0.00 1.42 0.00 98 1013.1
20260510055517 19 0 0.0 1.6 0.00 1.45 0.00 99 1013.3
20260510055018 18 0 0.0 0.0 0.00 1.45 0.00 98 1013.2
20260510054534 19 0 0.0 0.0 0.00 1.45 0.00 98 1013.4
20260510054016 19 0 0.0 0.0 0.00 1.45 0.00 98 1013.3
20260510053518 19 0 0.0 0.0 0.00 1.45 0.00 98 1013.5
20260510053051 19 0 0.0 0.0 0.00 1.45 0.00 98 1013.5
20260510052514 19 0 0.0 0.0 0.00 1.45 0.00 98 1013.5
20260510052018 19 0 0.0 0.0 0.00 1.45 0.00 98 1013.6
20260510051538 19 0 0.0 0.0 0.00 1.45 0.00 98 1013.7
20260510051018 19 0 0.0 0.0 0.00 1.45 0.00 98 1013.6
20260510050517 19 0 0.0 0.0 0.00 1.45 0.00 98 1013.8
20260510050035 19 0 0.0 0.0 0.00 1.45 0.00 98 1013.8
20260510045514 19 0 0.0 0.0 0.00 1.45 1.45 98 1013.8
20260510045017 19 0 0.0 0.0 0.00 1.45 1.45 98 1013.7
20260510044533 20 0 0.0 0.0 0.00 1.45 1.45 98 1013.9
20260510044018 20 0 0.0 0.0 0.00 1.45 1.45 98 1013.9
20260510043515 20 0 0.0 3.2 0.00 1.45 1.45 98 1013.7
20260510043045 20 0 0.0 3.2 0.00 1.45 1.45 98 1013.7
20260510042517 20 0 0.0 4.8 0.00 1.45 1.45 98 1013.5
20260510042017 20 0 0.0 4.8 0.00 1.45 1.45 98 1013.6
20260510041532 20 83 1.6 4.8 0.00 1.45 1.45 98 1013.6
20260510041018 20 76 0.0 1.6 0.00 1.45 1.45 98 1013.8
20260510040518 20 0 0.0 0.0 0.00 1.45 1.45 98 1014.0
20260510040041 20 0 0.0 0.0 0.00 1.45 1.45 98 1014.0
20260510035517 20 0 0.0 0.0 0.00 1.45 1.45 98 1013.9
20260510035017 20 0 0.0 0.0 0.00 1.45 1.45 98 1014.0
20260510034532 20 0 0.0 0.0 0.00 1.45 1.45 98 1013.8
20260510034018 20 0 0.0 0.0 0.00 1.45 1.45 98 1014.0
20260510033520 20 0 0.0 0.0 0.00 1.45 1.45 98 1014.0
20260510033032 20 0 0.0 0.0 0.00 1.45 1.45 98 1014.0
20260510032517 20 0 0.0 0.0 0.00 1.45 1.45 98 1014.0
20260510032018 20 0 0.0 0.0 0.00 1.45 1.45 98 1014.0
20260510031540 20 0 0.0 0.0 0.00 1.45 1.45 98 1014.0
20260510031016 20 0 0.0 0.0 0.00 1.45 1.45 98 1013.9
20260510030514 20 0 0.0 0.0 0.00 1.45 1.45 98 1013.8
20260510030034 20 0 0.0 0.0 0.00 1.45 1.45 98 1013.8
20260510025515 20 0 0.0 0.0 0.00 1.45 1.45 98 1013.9
20260510025015 20 0 0.0 0.0 0.00 1.45 1.45 98 1013.8
20260510024536 20 0 0.0 0.0 0.00 1.45 1.45 98 1013.8
20260510024019 20 0 0.0 1.6 0.00 1.45 1.45 98 1013.8
20260510023514 20 0 0.0 1.6 0.00 1.45 1.45 98 1013.6
20260510023034 20 0 0.0 3.2 0.00 1.45 1.45 97 1013.3
20260510022515 20 0 0.0 3.2 0.00 1.45 1.45 97 1013.3
20260510022015 20 0 1.6 3.2 0.00 1.45 1.45 98 1013.2
20260510021542 20 0 0.0 3.2 0.03 1.45 1.45 98 1013.4
20260510021018 20 0 0.0 4.8 0.03 1.45 1.45 97 1013.3
20260510020518 20 0 0.0 4.8 0.03 1.45 1.45 97 1013.4
20260510020032 20 281 1.6 4.8 0.03 1.45 1.45 97 1013.6
20260510015518 20 0 1.6 4.8 0.03 1.52 1.45 98 1013.6
20260510015017 20 0 0.0 0.0 0.03 1.52 1.45 97 1013.4
20260510014535 20 0 0.0 0.0 0.03 1.52 1.45 97 1013.3
20260510014018 20 0 0.0 0.0 0.03 1.52 1.45 97 1013.3
20260510013515 20 0 0.0 0.0 0.03 1.52 1.45 97 1013.3
20260510013042 20 0 0.0 0.0 0.03 1.52 1.45 97 1013.1
20260510012517 20 0 0.0 0.0 0.03 1.52 1.45 97 1013.3
20260510012014 20 0 0.0 0.0 0.03 1.52 1.45 97 1013.4
20260510011541 20 0 0.0 0.0 0.00 1.47 1.42 97 1013.5
20260510011018 20 0 0.0 0.0 0.00 1.47 1.42 97 1013.5
20260510010518 20 0 0.0 0.0 0.00 1.47 1.42 97 1013.5
20260510010033 20 0 0.0 0.0 0.00 1.47 1.42 97 1013.5
20260510005518 20 0 0.0 0.0 0.00 1.57 1.42 97 1013.5
20260510005014 20 0 0.0 0.0 0.00 1.57 1.42 97 1013.5
20260510004537 20 0 0.0 0.0 0.00 1.57 1.42 97 1013.5
20260510004018 20 0 0.0 0.0 0.00 1.57 1.42 97 1013.6
20260510003518 20 0 0.0 0.0 0.00 1.57 1.42 97 1013.7
20260510003034 20 0 0.0 0.0 0.00 1.57 1.42 96 1013.5
20260510002519 20 0 0.0 0.0 0.03 1.57 1.42 96 1013.3
20260510002017 20 0 0.0 3.2 0.03 1.57 1.42 96 1013.2
20260510001538 20 0 0.0 3.2 0.03 1.57 1.42 96 1013.0
20260510001018 20 348 0.0 6.4 0.03 1.57 1.42 96 1012.7
20260510000515 20 0 1.6 6.4 0.03 1.57 1.42 96 1012.2
20260510000045 20 0 0.0 6.4 0.03 1.57 1.42 96 1012.4
20260509235516 20 0 0.0 11.3 0.03 1.63 1.42 96 1012.5
20260509235017 20 229 1.6 11.3 0.03 1.63 1.42 96 1012.8
20260509234538 20 344 3.2 16.1 0.05 1.63 1.42 96 1012.5
20260509234020 20 0 1.6 16.1 0.05 1.63 1.42 96 1011.9
20260509233515 20 121 1.6 14.5 0.05 1.63 1.42 96 1011.4
20260509233036 20 126 4.8 12.9 0.03 1.60 1.40 95 1011.3
20260509232518 20 119 1.6 11.3 0.03 1.60 1.40 95 1011.3
20260509232017 20 177 3.2 11.3 0.03 1.60 1.40 95 1011.4
20260509231539 20 113 3.2 11.3 0.03 1.60 1.40 95 1011.7
20260509231021 20 140 0.0 4.8 0.03 1.60 1.40 95 1012.1
20260509230518 21 157 0.0 4.8 0.03 1.60 1.40 95 1012.3
20260509230035 21 0 0.0 3.2 0.03 1.60 1.40 95 1012.3
20260509225515 21 0 0.0 3.2 0.03 1.68 1.40 94 1012.4
20260509225017 21 0 0.0 3.2 0.03 1.68 1.40 94 1012.5
20260509224534 21 0 0.0 0.0 0.00 1.65 1.37 95 1012.6
20260509224017 21 0 0.0 0.0 0.03 1.65 1.37 95 1012.8
20260509223521 21 0 0.0 1.6 0.03 1.65 1.37 95 1012.7
20260509223032 21 0 0.0 3.2 0.03 1.65 1.37 94 1012.8
20260509222517 21 0 0.0 3.2 0.03 1.65 1.37 94 1012.8
20260509222021 21 0 0.0 1.6 0.03 1.65 1.37 94 1012.6
20260509221538 21 0 0.0 1.6 0.03 1.65 1.37 94 1012.5
20260509221018 21 0 0.0 0.0 0.03 1.65 1.37 94 1012.2
20260509220516 21 0 0.0 0.0 0.03 1.65 1.37 94 1012.3
20260509220035 21 0 0.0 0.0 0.03 1.65 1.37 93 1012.2
20260509215519 21 0 0.0 0.0 0.03 2.21 1.37 93 1012.2
20260509215017 21 0 0.0 1.6 0.03 2.21 1.37 92 1012.4
20260509214542 21 0 0.0 3.2 0.03 2.21 1.37 92 1012.6
20260509214017 21 0 0.0 3.2 0.00 2.18 1.32 92 1012.6
20260509213517 21 0 0.0 4.8 0.00 2.18 1.32 93 1012.5
20260509213036 21 0 0.0 4.8 0.00 2.18 1.32 92 1012.3
20260509212521 21 0 0.0 4.8 0.00 2.18 1.32 92 1011.7
20260509212018 21 0 0.0 4.8 0.00 2.18 1.32 92 1011.9
20260509211534 21 0 0.0 4.8 0.00 2.18 1.32 93 1012.2
20260509211017 21 0 0.0 3.2 0.00 2.18 1.32 93 1012.0
20260509210515 21 0 0.0 3.2 0.00 2.18 1.32 92 1012.2
20260509210037 21 0 0.0 4.8 0.00 2.18 1.32 91 1012.3
20260509205517 21 0 0.0 4.8 0.00 2.44 1.32 90 1012.3
20260509205018 21 71 0.0 4.8 0.00 2.44 1.32 90 1012.2
20260509204537 21 0 1.6 4.8 0.00 2.44 1.32 91 1011.9
20260509204014 21 0 0.0 3.2 0.00 2.44 1.32 91 1012.5
20260509203514 21 0 0.0 3.2 0.00 2.44 1.32 90 1012.6
20260509203039 21 0 0.0 3.2 0.00 2.44 1.32 91 1012.4
20260509202515 21 278 0.0 3.2 0.00 2.44 1.32 90 1012.3
20260509202017 21 285 0.0 6.4 0.00 2.44 1.32 91 1012.3
20260509201534 21 40 0.0 6.4 0.00 2.44 1.32 91 1012.1
20260509201017 21 0 0.0 4.8 0.00 2.44 1.32 91 1011.7
20260509200521 21 0 0.0 6.4 0.00 2.44 1.32 91 1011.8
20260509200032 21 259 0.0 6.4 0.00 2.44 1.32 91 1011.5
20260509195518 21 0 0.0 4.8 0.00 2.44 1.32 92 1010.7
20260509195014 21 0 0.0 6.4 0.00 2.44 1.32 91 1010.9
20260509194535 21 0 0.0 6.4 0.00 2.44 1.32 90 1010.4
20260509194019 21 127 1.6 6.4 0.00 2.44 1.32 89 1010.2
20260509193517 21 145 1.6 6.4 0.00 2.44 1.32 89 1010.2
20260509193034 22 0 0.0 6.4 0.00 2.44 1.32 90 1010.1
20260509192517 22 122 0.0 6.4 0.00 2.44 1.32 89 1010.4
20260509192017 22 0 0.0 6.4 0.00 2.44 1.32 90 1010.5
20260509191552 22 0 0.0 1.6 0.00 2.44 1.32 91 1010.5
20260509191017 22 0 0.0 4.8 0.00 2.44 1.32 91 1010.7
20260509190521 22 0 0.0 4.8 0.00 2.44 1.32 90 1010.8
20260509190035 22 0 0.0 4.8 0.00 2.44 1.32 91 1010.7
20260509185518 22 207 0.0 4.8 0.00 2.44 1.32 91 1010.7
20260509185018 22 0 0.0 6.4 0.00 2.44 1.32 90 1010.6
20260509184545 21 0 0.0 12.9 0.00 2.44 1.32 91 1010.6
20260509184018 21 0 1.6 12.9 0.00 2.44 1.32 91 1010.6
20260509183517 21 140 1.6 9.7 0.00 2.44 1.32 90 1010.6
20260509183047 21 138 3.2 12.9 0.00 2.44 1.32 91 1010.5
20260509182518 21 74 3.2 16.1 0.00 2.44 1.32 91 1010.7
20260509182018 21 83 6.4 16.1 0.00 2.44 1.32 91 1010.7
20260509181535 21 123 3.2 17.7 0.00 2.44 1.32 92 1010.9
20260509181020 21 134 4.8 17.7 0.00 2.44 1.32 93 1011.4
20260509180517 20 68 8.0 16.1 0.00 2.44 1.32 93 1011.4
20260509180031 20 88 8.0 16.1 0.00 2.44 1.32 93 1011.6